North Vernon, Indiana, United States (47265)
Lat: 39.01N, Lon: 85.62W
Wx Zone: INZ072
Local Info
Past Weather Observations for Thursday, September 18, 2014

NOTE: This archive is for the closest National Weather Service station to North Vernon. Information may differ from the station used for current weather conditions.

Click here for Long-term Archive

Time Weather Temperature Dewpoint Humidity Pressure Winds Precip Visibility
23:53
Partly Cloudy
52°F / 11°C 48°F / 9°C 88% 30.04 in
(1017 mb)
Calm - 8SM
22:53
Clear
52°F / 11°C 48°F / 9°C 88% 30.04 in
(1017 mb)
Calm - 10SM
21:53
Clear
54°F / 12°C 48°F / 9°C 82% 30.04 in
(1017 mb)
Calm - 10SM
20:53
Clear
54°F / 12°C 48°F / 9°C 82% 30.01 in
(1016 mb)
Calm - 10SM
19:53
Clear
57°F / 14°C 52°F / 11°C 82% 29.98 in
(1015 mb)
ESE 3.5 mph
(ESE 6 kph)
- 10SM
18:53
Partly Cloudy
61°F / 16°C 52°F / 11°C 72% 29.98 in
(1015 mb)
Calm - 10SM
17:53
Clear
66°F / 19°C 48°F / 9°C 52% 29.98 in
(1015 mb)
Calm - 10SM
16:53
Partly Cloudy
68°F / 20°C 48°F / 9°C 49% 30.01 in
(1016 mb)
SSW 4.6 mph
(SSW 7 kph)
- 10SM
15:53
Partly Cloudy
68°F / 20°C 48°F / 9°C 49% 30.01 in
(1016 mb)
SSW 5.8 mph
(SSW 9 kph)
- 10SM
14:53
Partly Cloudy
66°F / 19°C 46°F / 8°C 49% 30.04 in
(1017 mb)
S 4.6 mph
(S 7 kph)
- 10SM
13:53
Mostly Cloudy
66°F / 19°C 46°F / 8°C 49% 30.04 in
(1017 mb)
Calm - 10SM
12:53
Partly Cloudy
64°F / 18°C 46°F / 8°C 52% 30.04 in
(1017 mb)
Calm - 10SM
11:53
Overcast
64°F / 18°C 48°F / 9°C 56% 30.06 in
(1018 mb)
SSE 6.9 mph
(SSE 11 kph)
- 10SM
10:53
Mostly Cloudy
63°F / 17°C 48°F / 9°C 59% 30.06 in
(1018 mb)
SSE 5.8 mph
(SSE 9 kph)
- 10SM
09:53
Clear
61°F / 16°C 52°F / 11°C 72% 30.06 in
(1018 mb)
Calm - 10SM
09:12
Partly Cloudy
55°F / 13°C 52°F / 11°C 88% 30.06 in
(1018 mb)
Calm - 7SM
08:53
Mostly Cloudy
Fog And Mist
54°F / 12°C 52°F / 11°C 94% 30.06 in
(1018 mb)
Calm - 3SM
08:49
Overcast
Fog And Mist
54°F / 12°C 52°F / 11°C 94% 30.06 in
(1018 mb)
Calm - 2SM
08:38
Obscured
Fog And Mist
52°F / 11°C 50°F / 10°C 94% 30.09 in
(1019 mb)
Calm - 3/4SM
07:53
Obscured
Fog
48°F / 9°C 46°F / 8°C 94% 30.09 in
(1019 mb)
Calm - 1/4SM
06:53
Obscured
Fog
45°F / 7°C 43°F / 6°C 93% 30.09 in
(1019 mb)
ESE 3.5 mph
(ESE 6 kph)
- 1/4SM
06:28
Obscured
Fog
45°F / 7°C 41°F / 5°C 87% 30.06 in
(1018 mb)
Calm - 1/4SM
06:22
Obscured
Fog
45°F / 7°C 41°F / 5°C 87% 30.06 in
(1018 mb)
ENE 3.5 mph
(ENE 6 kph)
- 1/2SM
05:53
Obscured
Fog
45°F / 7°C 43°F / 6°C 93% 30.09 in
(1019 mb)
Calm - 1/4SM
05:37
Obscured
Fog
45°F / 7°C 43°F / 6°C 93% 30.09 in
(1019 mb)
E 3.5 mph
(E 6 kph)
- 1/4SM
05:25
Obscured
Fog
43°F / 6°C 41°F / 5°C 93% 30.09 in
(1019 mb)
Calm - 1/2SM
05:16
Obscured
Fog
43°F / 6°C 41°F / 5°C 93% 30.09 in
(1019 mb)
Calm - 1/4SM
05:03
Obscured
Fog
45°F / 7°C 41°F / 5°C 87% 30.09 in
(1019 mb)
Calm - 1/2SM
04:53
Obscured
Fog
45°F / 7°C 43°F / 6°C 93% 30.09 in
(1019 mb)
Calm - 1/4SM
04:04
Obscured
Fog
45°F / 7°C 41°F / 5°C 87% 30.06 in
(1018 mb)
Calm - 1/4SM
03:53
Obscured
Fog
45°F / 7°C 43°F / 6°C 93% 30.06 in
(1018 mb)
Calm - 1/2SM
03:43
Obscured
Fog
45°F / 7°C 43°F / 6°C 93% 30.09 in
(1019 mb)
Calm - 1/2SM
03:27
Obscured
Fog And Mist
45°F / 7°C 43°F / 6°C 93% 30.09 in
(1019 mb)
Calm - 3/4SM
03:12
Obscured
Fog
45°F / 7°C 43°F / 6°C 93% 30.09 in
(1019 mb)
ENE 3.5 mph
(ENE 6 kph)
- 1/4SM
02:53
Obscured
Fog And Mist
45°F / 7°C 43°F / 6°C 93% 30.09 in
(1019 mb)
E 3.5 mph
(E 6 kph)
- 3/4SM
02:36
Obscured
Fog
46°F / 8°C 43°F / 6°C 87% 30.09 in
(1019 mb)
SE 3.5 mph
(SE 6 kph)
- 1/2SM
02:17
Obscured
Fog
46°F / 8°C 43°F / 6°C 87% 30.09 in
(1019 mb)
Calm - 1/2SM
01:53
Obscured
Fog
46°F / 8°C 43°F / 6°C 87% 30.09 in
(1019 mb)
Calm - 1/4SM
01:45
Obscured
Fog
46°F / 8°C 43°F / 6°C 87% 30.09 in
(1019 mb)
Calm - 1/4SM
01:18
Obscured
Fog
46°F / 8°C 45°F / 7°C 93% 30.09 in
(1019 mb)
Calm - 1/2SM
01:00
Obscured
Fog
46°F / 8°C 45°F / 7°C 93% 30.09 in
(1019 mb)
Calm - 1/4SM
00:53
Obscured
Fog
46°F / 8°C 45°F / 7°C 93% 30.09 in
(1019 mb)
Calm - 1/2SM
00:41
Obscured
Fog
46°F / 8°C 45°F / 7°C 93% 30.09 in
(1019 mb)
Calm - 1/2SM
00:30
Obscured
Fog
46°F / 8°C 45°F / 7°C 93% 30.12 in
(1020 mb)
Calm - 1/4SM
00:20
Obscured
Fog
46°F / 8°C 45°F / 7°C 93% 30.12 in
(1020 mb)
Calm - 1/2SM
00:08
Obscured
Fog And Mist
46°F / 8°C 45°F / 7°C 93% 30.12 in
(1020 mb)
Calm - 1SM
Time Weather Temperature Dewpoint Humidity Pressure Winds Precip Visibility


Weather for websites

WeatherForYou.com, LLC is not responsible for any damages or problems caused by this service. Current weather conditions are obtained from the closest station including government and personal stations which may have varying degrees of accuracy. Weather forecasts are derived from the NOAA NDFD. Like all things, this site belongs to Jesus Christ... He just trusts me to maintain it. If you have any questions or comments email webmaster@weatherforyou.com

Copyright © 2014, WeatherForYou.com LLC. All rights reserved.